Regional Weather Roundup
Issued by NWS

Home | Current Version | Previous Version | Graphics & Text | Print | Product List | Glossary On
Versions: 1 2 3 4 5 6 7 8 9 10 11 12 13 14 15 16 17 18 19 20 21 22 23 24 25 26 27 28 29 30 31 32 33 34 35 36 37 38 39 40 41 42 43 44 45 46 47 48 49 50
552
ASUS45 KBOU 210110
RWRCO

WEATHER ROUNDUP FOR COLORADO
NATIONAL WEATHER SERVICE DENVER/BOULDER CO
700 PM MDT SUN MAY 20 2018

NOTE: "FAIR" INDICATES FEW OR NO CLOUDS BELOW 12000 FEET WITH NO
SIGNIFICANT WEATHER AND/OR OBSTRUCTIONS TO VISIBILITY.

COZ001>005-013-030-031-210200-
...NORTHWEST COLORADO...

CITY           SKY/WX    TMP DP  RH WIND       PRES   REMARKS
CRAIG          FAIR      61  44  53 S15G26    30.07R
HAYDEN         FAIR      59  38  45 E9        30.09R
MEEKER         RAIN      52  42  69 S16G30    30.15R
RANGELY        CLOUDY    67  37  33 SW6       30.01R
RABBIT EARS PA FAIR      41  32  70 E6        30.28S
STEAMBOAT SPGS FAIR      57  38  49 CALM      30.09R
WALDEN         FAIR      50  37  62 CALM      30.18S
$$

COZ006>008-011-210200-
...WEST CENTRAL VALLEYS...

CITY           SKY/WX    TMP DP  RH WIND       PRES   REMARKS
GRAND JUNCTION FAIR      66  44  45 SE9       29.95F
MONTROSE       FAIR      67  31  26 E10       30.02F
EAGLE          PTSUNNY   63  30  28 W10       30.12R
RIFLE          FAIR      61  40  45 N9G18     30.07R
DELTA          FAIR      72  30  21 NE12      29.99F
NUCLA          FAIR      68  34  28 NW8       30.01F
$$

COZ017>023-064>068-210200-
...SOUTHWEST COLORADO...

CITY           SKY/WX    TMP DP  RH WIND       PRES   REMARKS
DURANGO        FAIR      74   9   8 S18       30.00F
CORTEZ         FAIR      76   4   6 SW12      29.95S
PAGOSA SPRINGS FAIR      66  14  13 S7        30.11S
TELLURIDE      FAIR      58  22  24 CALM      30.18F
WOLF CREEK PAS PTSUNNY   34  30  86 NW5       30.42S WCI  30
$$

COZ009-010-012-014-032>034-037-058>063-210200-
...CENTRAL COLORADO...

CITY           SKY/WX    TMP DP  RH WIND       PRES   REMARKS
ASPEN          FAIR      56  32  40 SE13G21   30.16R
BUENA VISTA    PTSUNNY   54  33  44 SE8       30.21R
COPPER MTN     FAIR      37  32  81 S14       30.38R
BERTHOUD PASS  HAZE      28  18  64 S7G16     30.38F VSB 1/4 WCI  21
COTTONWOOD PAS CLOUDY    52  32  46 SW16G22   30.29F
GUNNISON       FAIR      51  36  56 E17G23    30.19F
GRANBY         FAIR      51  35  52 SE7       30.18S
KREMMLING      PTSUNNY   61  34  36 SW12      30.16R
LEADVILLE      CLOUDY    47  28  47 S10       30.27R
MONARCH PASS   FAIR      32  30  93 MISG      30.48F
SALIDA         FAIR      56  35  44 SE7       30.27S
SUNLIGHT       PTSUNNY   37  30  75 W6        30.34S
WILKERSON PASS PTSUNNY   37  34  87 CALM      30.40S
$$

COZ069>075-210200-
...SAN LUIS VALLEY/SANGRE DE CRISTO MOUNTAINS...

CITY           SKY/WX    TMP DP  RH WIND       PRES   REMARKS
ALAMOSA        LGT RAIN  56  35  45 N20       30.18R
DEL NORTE      FAIR      52  36  53 N10       30.21F
LA VETA PASS   CLOUDY    39  34  81 S17G29    30.44S
SAGUACHE       NOT AVBL
$$

COZ035-036-038>040-210200-
...NORTHERN COLORADO FRONT RANGE...

CITY           SKY/WX    TMP DP  RH WIND       PRES   REMARKS
DENVER INTL AP PTSUNNY   54  44  69 W12       30.16F
AURORA         MOSUNNY   52  45  75 W8        30.19R
FRONT RANGE AP PTSUNNY   57  48  72 S6        30.17F
ERIE MUNI ARPT PTSUNNY   51  48  89 N5        30.19F
BOULDER MUN AP FAIR      50  48  93 N3        30.14F
CENTENNIAL     CLOUDY    51  44  77 W8        30.20R
BROOMFIELD     LGT RAIN  50  48  93 S13       30.15F
FORT COLLINS   LGT RAIN  51  47  86 SW8       30.13F
LONGMONT       FAIR      56  47  72 CALM      30.16F
$$

COZ041-046-047-076>085-087-088-210200-
...PIKES PEAK/PALMER DIVIDE AND SOUTHERN FOOTHILLS...

CITY           SKY/WX    TMP DP  RH WIND       PRES   REMARKS
COLO. SPRINGS  PTSUNNY   54  44  69 S5        30.19F
A. F. ACADEMY  PTSUNNY   52  44  76 SW5       30.19F
SCHRIEVER AFB  NOT AVBL
CHEYENNE MTN   PTSUNNY   50  43  77 NW3       30.15F
ELLICOTT       LGT RAIN N/A N/A N/A SW3       30.17F
FALCON         CLOUDY    52  39  62 SW7       30.21F
FORT CARSON    FAIR      54  45  70 CALM      30.15F
LIMON          FAIR      59  41  51 S12       30.15F
MONUMENT HILL  PTSUNNY   50  41  71 SW6       30.24R
CANON CITY     FAIR      57  50  77 CALM      30.15F
WALSENBURG     FAIR      59  46  63 W6        30.17R
TRINIDAD       CLOUDY    60  48  64 E3        30.14R
$$

COZ042>045-048>051-090-091-210200-
...NORTHEAST COLORADO...

CITY           SKY/WX    TMP DP  RH WIND       PRES   REMARKS
GREELEY ARPT   FAIR      56  48  74 S3        30.14F
AKRON          FAIR      57  44  62 SE6       30.15F
BURLINGTON     FAIR      60  46  59 NE10      30.15R
WRAY           FAIR      59  46  63 E3        30.15S
YUMA           FAIR      55  32  41 E8        30.15S
STERLING       PTSUNNY   59  45  58 SE7       30.13F
HOLYOKE        CLOUDY    59  46  63 S7        30.16R
FORT MORGAN    FAIR      60  42  50 E8        30.15S
$$

COZ086-089-092>099-210200-
...SOUTHEAST COLORADO...

CITY           SKY/WX    TMP DP  RH WIND       PRES   REMARKS
PUEBLO         FAIR      64  42  44 E12       30.10F
LA JUNTA       FAIR      66  44  45 NE10      30.11R
LAMAR          MOCLDY    68  43  40 SE5       30.08R
SPRINGFIELD      N/A     65  43  44 SE13      30.11R
$$




USA.gov is the U.S. government's official web portal to all federal, state and local government web resources and services.